Regional Weather Roundup
Issued by NWS Cleveland, OH

Home | Current Version | Previous Version | Text Only | Print | Product List | Glossary Off
Versions: 1 2 3 4 5 6 7 8 9 10 11 12 13 14 15 16 17 18 19 20 21 22 23 24 25 26 27 28 29 30 31 32 33 34 35 36 37 38 39 40 41 42 43 44 45 46 47 48 49 50

000
ASUS41 KCLE 190602
RWRCLE
OHIO REGIONAL WEATHER ROUNDUP
NATIONAL WEATHER SERVICE CLEVELAND, OH
100 AM EST SUN FEB 19 2017

NOTE: "FAIR" INDICATES FEW OR NO CLOUDS BELOW 12,000 FEET WITH NO
SIGNIFICANT WEATHER AND/OR OBSTRUCTIONS TO VISIBILITY.

OHZ001>008-015>018-024>027-034-035-043-044-190700-
   NORTHWEST OHIO

CITY           SKY/WX    TMP DP  RH WIND       PRES   REMARKS
DEFIANCE       CLEAR     41  37  86 SW6       29.83R
FINDLAY        CLEAR     47  39  74 SW10      29.82S
TOLEDO EXPRESS CLEAR     45  41  86 SW7       29.81R
TOLEDO EXEC    CLEAR     44  40  85 SW7       29.82R
LIMA           CLEAR     47  42  83 SW9       29.85R
$$

OHZ009>014-019>023-028>033-038-089-190700-
   NORTHEAST OHIO

CITY           SKY/WX    TMP DP  RH WIND       PRES   REMARKS
CLE-HOPKINS    CLEAR     51  39  63 SW8       29.83S
CLE-LAKEFRONT  PTCLDY    53  40  61 SW16      29.79R
CUY CO. ARPT   NOT AVBL
LORAIN-ELYRIA  CLEAR     47  38  71 W8        29.82R
ASHTABULA      CLEAR     47  38  71 SW7       29.79R
AKRON-CANTON   CLEAR     46  38  73 SW9       29.84R
WOOSTER        CLEAR     45  40  82 SW9       29.84S
MANSFIELD      CLEAR     47  42  83 SW12      29.84S
YOUNGSTOWN     PTCLDY    50  38  63 SW12      29.82R
$$

OHZ042-051>053-060>062-070>072-077>081-190700-
  SOUTHWEST OHIO

CITY           SKY/WX    TMP DP  RH WIND       PRES   REMARKS
CINC-COVINGTON CLOUDY    51  47  86 W8        29.93R
CINC-LUNKEN    CLOUDY    52  48  86 SW5       29.94R
HAMILTON       CLEAR     49  46  90 W6        29.93R
DAYTON         MOCLDY    47  44  90 SW16      29.90R
WRIGHT-PAT AFB MOCLDY    48  48 100 W14       29.90R
DAYTON GENERAL PTCLDY    49  45  86 W10       29.90R
WILMINGTON     CLOUDY    49  46  90 W13       29.91R
$$

OHZ036-037-039>041-045>050-054>059-063>069-073>076-082>088-190700-
  CENTRAL AND SOUTHEAST OHIO

CITY           SKY/WX    TMP DP  RH WIND       PRES   REMARKS
COLUMBUS       CLOUDY    48  42  80 S5        29.89R
OSU AIRPORT    CLEAR     46  43  89 SW7       29.89R
BOLTON FIELD   CLOUDY    44  42  94 SW6       29.90R
RICKENBACK AFB NOT AVBL
NEWARK         MOCLDY    47  42  83 SW5       29.88R
MARION         CLEAR     43  40  89 SW8       29.86R
LANCASTER      CLOUDY    49  44  83 SW6       29.91R
ZANESVILLE     CLOUDY    50  42  74 SW3       29.89R
NEW PHILLY     NOT AVBL
$$




USA.gov is the U.S. government's official web portal to all federal, state and local government web resources and services.